Вернуться в каталог

PRAETORIAN SDA_608

АктивенВоенныеPO
NORAD 65571·PAYLOAD·🇺🇸 United States

Запущен Sep 10, 2025 с Vandenberg Space Force Base

Loading…

Ближайшие Пролёты (ближайшие 24 часа)

TLE

СвежийSource: Space-Track

Эпоха: Sep 14, 2026, 12:21 UTC

1 65571U 25203G   26257.51487738  .00000057  00000-0  41088-4 0  9998
2 65571  81.2979 288.1166 0005267 326.1101  33.9719 13.83824601 51046

Отслеживайте PRAETORIAN SDA_608 в реальном времени с AllMySat

Download on the App Store